Waarnemingen

Advertentie
Mijn weer
Solenzara, Frankrijk (7765): temperatuur & dauwpunt: 18.10.2017 09:00:00 - 24.10.2017 09:00:00 (CEST)Solenzara, Frankrijk (7765): temperatuur 5cm: 18.10.2017 09:00:00 - 24.10.2017 09:00:00 (CEST)Solenzara, Frankrijk (7765): temperatuur -20cm: 18.10.2017 09:00:00 - 24.10.2017 09:00:00 (CEST)Solenzara, Frankrijk (7765): windsnelheid & windstoten: 18.10.2017 09:00:00 - 24.10.2017 09:00:00 (CEST)Solenzara, Frankrijk (7765): windrichting: 18.10.2017 09:00:00 - 24.10.2017 09:00:00 (CEST)Solenzara, Frankrijk (7765): luchtdruk: 18.10.2017 09:00:00 - 24.10.2017 09:00:00 (CEST)Solenzara, Frankrijk (7765): zicht: 18.10.2017 09:00:00 - 24.10.2017 09:00:00 (CEST)Solenzara, Frankrijk (7765): Zonneschijnduur: 18.10.2017 09:00:00 - 24.10.2017 09:00:00 (CEST)Solenzara, Frankrijk (7765): neerslag: 18.10.2017 09:00:00 - 24.10.2017 09:00:00 (CEST)
Datum & Tijd tt [°C] td [°C] tt 5cm [°C] tt -20cm [°C] ff [km/u] ff [kn] fx [km/u] fx [kn] dd ppp [hPa] vv [km] sd [min] rr [mm]
24.10.2017 09:00:00 15,9 -0,8 13,6 19,2 11 6 19 10 W 1019,3 10 60 0,0
24.10.2017 08:00:00 14,1 -1,5 12,3 19,4 13 7 21 11 W 1018,7 10 9 0,0
24.10.2017 07:00:00 14,2 -2,3 12,0 19,6 13 7 19 11 W 1018,2 10 0 0,0
24.10.2017 06:00:00 15,4 -3,0 10,8 19,7 9 5 20 11 NW 1017,6 10 0 0,0
24.10.2017 05:00:00 13,7 -2,3 12,1 19,8 13 7 25 13 W 1017,2 10 0 0,0
24.10.2017 04:00:00 14,0 -2,0 11,8 20,0 13 7 18 10 W 1016,8 10 0 0,0
24.10.2017 03:00:00 14,0 -1,6 11,8 20,2 11 6 16 9 W 1016,7 10 0 0,0
24.10.2017 02:00:00 13,9 -1,3 12,2 20,3 11 6 19 10 W 1016,7 10 0 0,0
24.10.2017 01:00:00 14,4 -1,7 12,7 20,5 11 6 20 11 W 1016,6 10 0 0,0
24.10.2017 00:00:00 14,4 -1,3 12,8 20,6 13 7 21 11 W 1016,7 10 0 0,0
23.10.2017 23:00:00 14,5 -0,8 13,0 20,7 13 7 23 12 W 1016,6 10 0 0,0
23.10.2017 22:00:00 14,7 1,2 13,2 20,8 11 6 22 12 W 1016,3 10 0 0,0
23.10.2017 21:00:00 14,8 3,9 13,3 20,9 11 6 22 12 W 1016,2 10 0 0,0
23.10.2017 20:00:00 15,5 4,2 14,1 20,9 9 5 19 10 WNW 1015,9 10 0 0,0
23.10.2017 19:00:00 16,3 4,6 15,0 20,8 11 6 16 9 W 1015,3 10 0 0,0
23.10.2017 18:00:00 18,7 5,2 16,5 20,7 8 4 13 7 Z 1014,8 60 45 0,0
23.10.2017 17:00:00 21,3 4,4 22,2 20,5 8 4 16 9 Z 1014,6 10 60 0,0
23.10.2017 16:00:00 22,0 4,1 23,5 20,2 9 5 18 10 OZO 1014,4 10 60 0,0
23.10.2017 15:00:00 21,7 4,7 27,0 20,1 11 6 27 15 OZO 1014,3 10 60 0,0
23.10.2017 14:00:00 21,7 6,4 26,4 19,9 24 13 36 20 Z 1014,2 10 60 0,0
23.10.2017 13:00:00 21,9 2,6 26,9 19,7 22 12 32 18 ZZO 1014,5 10 60 0,0
23.10.2017 12:00:00 22,1 -1,9 24,9 19,6 5 3 24 13 NNW 1014,7 48 60 0,0
23.10.2017 11:00:00 21,6 0,1 21,2 19,7 18 10 29 16 NNO 1014,8 10 60 0,0
23.10.2017 10:00:00 18,7 2,5 18,0 19,8 8 4 19 10 NW 1015,0 10 60 0,0
23.10.2017 09:00:00 15,1 0,5 10,3 20,0 5 3 13 7 - 1014,4 10 60 0,0
23.10.2017 08:00:00 12,0 0,7 10,0 20,1 4 2 18 10 - 1014,2 10 7 0,0
23.10.2017 07:00:00 13,4 1,4 10,8 20,2 11 6 19 10 W 1013,7 10 0 0,0
23.10.2017 06:00:00 13,4 2,3 10,9 20,4 9 5 15 8 W 1013,7 10 0 0,0
23.10.2017 05:00:00 13,6 3,9 9,3 20,5 8 4 16 8 NNO 1013,0 10 0 0,0
23.10.2017 04:00:00 16,1 3,2 13,4 20,7 11 6 20 11 W 1012,4 10 0 0,0
23.10.2017 03:00:00 17,0 2,9 13,2 20,8 5 3 43 23 - 1012,7 10 0 0,0
23.10.2017 02:00:00 18,0 3,5 16,8 20,9 24 13 56 30 WNW 1012,0 10 0 0,0
23.10.2017 01:00:00 18,2 2,9 16,8 21,1 21 11 58 32 W 1011,5 10 0 0,0
23.10.2017 00:00:00 18,3 1,7 15,7 21,2 16 9 40 21 NW 1012,1 10 0 0,0
22.10.2017 23:00:00 18,3 1,7 16,3 21,3 8 4 37 20 W 1012,1 10 0 0,0
22.10.2017 22:00:00 19,0 1,9 17,0 21,4 13 7 49 27 - 1012,3 10 0 0,0
22.10.2017 21:00:00 19,3 1,7 17,1 21,5 18 10 59 32 - 1011,2 10 0 0,0
22.10.2017 20:00:00 19,1 4,1 17,0 21,5 15 8 51 27 WZW 1012,3 10 0 0,0
22.10.2017 19:00:00 18,8 3,8 16,2 21,5 5 3 30 16 - 1012,6 10 0 0,0
22.10.2017 18:00:00 19,1 4,1 18,1 21,5 13 7 48 26 - 1012,7 10 26 0,0
22.10.2017 17:00:00 20,5 2,8 21,3 21,4 22 12 94 51 WZW 1011,9 10 60 0,0
22.10.2017 16:00:00 21,1 2,8 21,7 21,3 39 21 79 42 W 1009,6 10 60 0,0
22.10.2017 15:00:00 22,8 3,3 26,7 21,2 18 10 61 33 WNW 1011,9 37 60 0,0
22.10.2017 14:00:00 23,9 4,8 24,2 21,2 21 11 60 32 W 1013,1 10 33 0,0
22.10.2017 13:00:00 23,6 6,4 24,6 21,1 18 10 54 29 WNW 1014,4 10 0 0,0
22.10.2017 12:00:00 24,0 8,0 22,0 21,2 13 7 35 19 WNW 1015,3 10 0 0,0
22.10.2017 11:00:00 20,8 13,0 19,6 21,2 5 3 16 9 - 1016,0 10 0 0,0
22.10.2017 10:00:00 18,7 15,9 18,6 21,3 9 5 16 9 ZW 1016,2 10 0 0,0
22.10.2017 09:00:00 17,8 15,8 16,8 21,4 4 2 15 8 - 1016,1 10 0 0,0
22.10.2017 08:00:00 17,4 15,7 16,6 21,4 0 0 10 6 N 1016,1 10 0 0,0
22.10.2017 07:00:00 17,3 15,8 16,4 21,5 5 3 11 6 - 1016,2 10 0 0,0
22.10.2017 06:00:00 17,5 16,2 16,5 21,6 4 2 9 5 - 1016,6 9 0 0,0
22.10.2017 05:00:00 17,8 16,3 16,6 21,7 4 2 11 6 - 1016,8 10 0 0,0
22.10.2017 04:00:00 18,1 16,6 17,6 21,8 0 0 9 5 N 1017,7 8 0 0,0
22.10.2017 03:00:00 17,9 16,4 16,9 21,8 5 3 9 5 W 1018,2 10 0 0,0
22.10.2017 02:00:00 17,8 16,3 15,9 22,0 5 3 9 5 - 1018,8 10 0 0,0
22.10.2017 01:00:00 18,0 16,3 16,7 22,1 0 0 12 6 N 1019,0 10 0 0,0
22.10.2017 00:00:00 18,0 16,0 16,6 22,2 8 4 13 7 W 1019,4 10 0 0,0
21.10.2017 23:00:00 17,9 15,9 16,6 22,3 6 3 13 7 W 1019,8 18 0 0,0
21.10.2017 22:00:00 17,9 16,1 16,9 22,3 5 3 13 7 W 1019,8 10 0 0,0
21.10.2017 21:00:00 18,3 16,5 17,3 22,3 7 4 11 6 W 1020,1 15 0 0,0
21.10.2017 20:00:00 18,8 16,9 17,8 22,3 8 4 10 5 W 1019,9 10 0 0,0
21.10.2017 19:00:00 20,2 17,8 18,8 22,2 4 2 8 5 - 1019,5 10 0 0,0
21.10.2017 18:00:00 20,9 17,7 20,5 22,0 5 3 12 6 NO 1019,4 10 43 0,0
21.10.2017 17:00:00 21,9 18,1 22,9 21,8 9 5 13 7 ONO 1019,4 10 60 0,0
21.10.2017 16:00:00 22,3 18,1 24,2 21,5 8 4 16 8 O 1019,6 10 60 0,0
21.10.2017 15:00:00 22,6 18,2 28,4 21,3 8 4 18 10 OZO 1019,7 10 60 0,0
21.10.2017 14:00:00 22,2 17,8 28,7 21,0 11 6 18 10 ZZO 1020,5 10 60 0,0
21.10.2017 13:00:00 22,2 17,8 27,9 20,8 11 6 17 9 OZO 1020,9 10 60 0,0
21.10.2017 12:00:00 22,1 17,2 27,2 20,8 5 3 14 8 O 1021,3 10 60 0,0
21.10.2017 11:00:00 22,1 15,4 23,9 20,8 5 3 9 5 OZO 1021,5 10 60 0,0
21.10.2017 10:00:00 21,1 14,5 18,9 20,8 2 1 10 5 - 1021,4 10 60 0,0
21.10.2017 09:00:00 17,3 13,0 14,6 21,0 5 3 19 11 WNW 1021,3 10 38 0,0
21.10.2017 08:00:00 15,3 11,7 14,5 21,1 11 6 19 10 W 1020,9 10 0 0,0
21.10.2017 07:00:00 15,6 12,3 14,4 21,2 9 5 17 9 W 1020,6 10 0 0,0
21.10.2017 06:00:00 15,3 12,1 14,5 21,4 13 7 19 11 WNW 1020,3 40 0 0,0
21.10.2017 05:00:00 15,7 12,3 14,6 21,5 11 6 19 10 W 1020,1 10 0 0,0
21.10.2017 04:00:00 15,9 12,5 14,4 21,6 11 6 19 10 W 1020,2 40 0 0,0
21.10.2017 03:00:00 16,1 12,8 14,6 21,8 9 5 15 8 W 1020,3 10 0 0,0
21.10.2017 02:00:00 16,3 13,4 15,1 21,9 8 4 15 8 W 1020,6 10 0 0,0
21.10.2017 01:00:00 16,4 13,7 15,3 22,0 8 4 16 8 W 1020,7 10 0 0,0
21.10.2017 00:00:00 16,9 14,2 15,9 22,1 9 5 16 9 W 1020,9 10 0 0,0
20.10.2017 23:00:00 17,3 14,6 16,3 22,2 9 5 18 10 W 1020,7 10 0 0,0
20.10.2017 22:00:00 18,0 15,4 16,9 22,3 8 4 15 8 W 1020,6 10 0 0,0
20.10.2017 21:00:00 19,2 16,2 17,6 22,3 8 4 13 7 W 1020,1 10 0 0,0
20.10.2017 20:00:00 18,9 17,0 17,8 22,3 5 3 13 7 W 1020,0 10 0 0,0
20.10.2017 19:00:00 20,0 17,4 19,2 22,2 8 4 18 10 ZW 1019,6 10 0 0,0
20.10.2017 18:00:00 20,8 18,2 20,7 22,1 13 7 20 11 ZZO 1019,2 10 19 0,0
20.10.2017 17:00:00 21,5 18,5 21,9 21,9 15 8 23 12 ZZO 1018,9 20 53 0,0
20.10.2017 16:00:00 21,8 18,4 23,0 21,8 13 7 22 12 ZZO 1018,7 10 53 0,0
20.10.2017 15:00:00 22,5 18,5 27,7 21,6 13 7 17 9 ZO 1018,5 10 60 0,0
20.10.2017 14:00:00 22,3 17,9 28,1 21,4 11 6 17 9 ZZO 1018,8 10 60 0,0
20.10.2017 13:00:00 22,4 17,7 25,9 21,3 9 5 16 9 OZO 1019,1 10 56 0,0
20.10.2017 12:00:00 21,8 17,2 23,5 21,3 4 2 13 7 - 1019,5 10 35 0,0
20.10.2017 11:00:00 20,0 16,4 19,9 21,3 8 4 13 7 WNW 1019,2 10 17 0,2
20.10.2017 10:00:00 18,5 16,3 16,8 21,4 8 4 19 10 WNW 1018,9 10 1 0,0
20.10.2017 09:00:00 17,3 15,6 16,2 21,5 9 5 23 13 WNW 1018,4 17 0 6,1
20.10.2017 08:00:00 18,0 15,8 15,9 21,7 8 4 15 8 NNW 1017,7 10 0 0,2
20.10.2017 07:00:00 17,0 14,5 15,2 21,7 9 5 18 10 W 1017,0 10 0 0,0
20.10.2017 06:00:00 16,6 13,5 15,4 21,9 9 5 20 11 W 1016,8 10 0 0,0
20.10.2017 05:00:00 16,4 14,1 15,3 21,9 9 5 16 9 WNW 1016,4 10 0 0,2
20.10.2017 04:00:00 16,5 14,0 15,2 22,1 9 5 15 8 W 1016,5 10 0 1,6
20.10.2017 03:00:00 16,4 14,1 15,3 22,1 11 6 21 11 W 1017,0 10 0 0,6
20.10.2017 02:00:00 17,2 12,7 16,8 22,2 9 5 18 10 WNW 1016,9 10 0 0,0
20.10.2017 01:00:00 17,2 13,5 16,6 22,2 11 6 18 10 W 1016,9 10 0 0,0
20.10.2017 00:00:00 17,5 14,2 16,8 22,3 9 5 16 9 W 1016,8 10 0 0,0
19.10.2017 23:00:00 18,4 15,3 18,1 22,3 8 4 11 6 W 1016,9 10 0 0,0
19.10.2017 22:00:00 19,3 16,9 18,6 22,3 4 2 17 9 - 1016,8 10 0 0,0
19.10.2017 21:00:00 20,1 17,9 19,4 22,3 9 5 24 13 ZZO 1016,4 10 0 0,0
19.10.2017 20:00:00 20,1 17,7 19,6 22,3 16 9 29 16 ZO 1016,2 10 0 0,0
19.10.2017 19:00:00 20,2 17,6 19,8 22,2 16 9 30 16 ZO 1016,1 10 0 0,0
19.10.2017 18:00:00 20,5 17,3 20,5 22,1 18 10 29 15 ZO 1015,9 10 0 0,0
19.10.2017 17:00:00 20,9 17,5 21,3 21,9 15 8 24 13 ZO 1015,9 10 7 0,0
19.10.2017 16:00:00 21,9 17,5 23,5 21,7 16 9 28 15 ZO 1016,0 10 47 0,0
19.10.2017 15:00:00 23,0 17,2 28,1 21,5 21 11 30 16 ZO 1016,4 10 60 0,0
19.10.2017 14:00:00 23,4 17,4 28,2 21,3 22 12 28 15 ZO 1016,8 10 60 0,0
19.10.2017 13:00:00 23,1 17,6 26,9 21,2 16 9 26 14 ZO 1017,4 10 60 0,0
19.10.2017 12:00:00 22,0 16,3 27,3 21,1 13 7 18 10 OZO 1017,6 10 60 0,0
19.10.2017 11:00:00 21,8 15,9 23,7 21,1 5 3 13 7 OZO 1017,5 10 60 0,0
19.10.2017 10:00:00 19,9 14,5 19,2 21,2 4 2 12 7 - 1017,7 10 50 0,0
19.10.2017 09:00:00 16,9 11,0 14,6 21,3 9 5 16 9 WNW 1017,6 10 46 0,0
19.10.2017 08:00:00 15,2 10,4 14,5 21,4 8 4 19 11 W 1017,3 10 0 0,0
19.10.2017 07:00:00 15,5 10,9 14,6 21,5 9 5 17 9 W 1017,3 10 0 0,0
19.10.2017 06:00:00 15,5 11,1 14,4 21,6 10 5 18 10 W 1017,5 20 0 0,0
19.10.2017 05:00:00 15,7 11,1 14,6 21,7 11 6 18 10 W 1017,4 10 0 0,0
19.10.2017 04:00:00 16,2 11,4 15,3 21,8 9 5 17 9 WNW 1017,4 10 0 0,0
19.10.2017 03:00:00 16,1 11,9 15,2 21,9 9 5 16 9 W 1017,8 10 0 0,0
19.10.2017 02:00:00 16,3 11,9 15,5 22,0 8 4 15 8 W 1018,1 10 0 0,0
19.10.2017 01:00:00 16,8 12,3 15,8 22,1 9 5 16 9 W 1018,2 10 0 0,0
19.10.2017 00:00:00 16,9 12,8 15,6 22,1 8 4 16 9 W 1018,5 10 0 0,0
18.10.2017 23:00:00 17,4 12,9 16,3 22,2 9 5 15 8 W 1018,7 10 0 0,0
18.10.2017 22:00:00 17,9 14,0 16,9 22,2 8 4 13 7 W 1018,5 44 0 0,0
18.10.2017 21:00:00 19,0 15,7 17,9 22,2 5 3 8 5 - 1018,4 10 0 0,0
18.10.2017 20:00:00 20,0 16,0 19,5 22,1 5 3 16 9 - 1018,2 10 0 0,0
18.10.2017 19:00:00 20,3 16,5 20,2 22,0 11 6 17 9 ZZO 1018,0 10 0 0,0
18.10.2017 18:00:00 20,7 16,9 20,9 21,9 9 5 17 9 ZZO 1017,8 10 0 0,0
18.10.2017 17:00:00 21,0 16,6 22,1 21,7 11 6 17 9 ZZO 1017,9 10 0 0,0
18.10.2017 16:00:00 21,1 16,5 23,1 21,5 11 6 19 10 ZZO 1018,1 10 10 0,0
18.10.2017 15:00:00 21,7 16,9 24,1 21,3 11 6 21 11 ZZO 1018,5 10 22 0,0
18.10.2017 14:00:00 22,3 16,8 23,9 21,1 11 6 18 10 ZO 1019,1 10 55 0,0
18.10.2017 13:00:00 21,3 16,3 24,6 21,0 11 6 20 11 O 1019,9 10 58 0,0
18.10.2017 12:00:00 21,6 15,4 26,7 20,9 9 5 14 8 OZO 1020,3 10 60 0,0
18.10.2017 11:00:00 21,5 15,3 22,4 21,0 8 4 12 6 O 1020,5 10 58 0,0
18.10.2017 10:00:00 20,2 13,9 19,0 21,0 5 3 9 5 - 1020,8 10 60 0,0
18.10.2017 09:00:00 16,4 9,3 13,4 21,2 8 4 20 11 W 1020,8 10 43 0,0

tt = temperatuur
td = dauwpunt
tt 5cm = temperatuur 5cm
tt -20cm = temperatuur -20cm
ff = windsnelheid
fx = windstoten
dd = windrichting
ppp = luchtdruk
vv = zicht
sd = Zonneschijnduur
rr = neerslag

Weerstations in de omgeving